Location: ??????????
(44.2167°N, 135.5333°E)
Time: 15:24:47
(UTC+00:00)

Cosmos 1943 Rocket - Pass Details

Date: 15 June 2025
Orbit: 810 x 843 km, 71.0° (Epoch: 16 July)

Event Time Altitude Azimuth Distance (km) Brightness Sun altitude
Exits shadow 15:31:00 18° 122° (ESE) 1,874 3.8 -22.0°
Maximum altitude 15:32:30 21° 101° (E) 1,770 3.8 -22.0°
Drops below altitude 10° 15:36:28 10° 54° (NE) 2,407 5.2 -21.9°
Sets 15:39:27 0° 39° (NE) 3,348 6.3 -21.8°
